• In Hungary
  • List of Countries
  • For 7 days
  • Water Temperature
  • Satellite Maps
  • Weather Map
  • News
  • Weather Widgets
  • user-avatar
    Login

    Hourly Weather Coesfeld

    Today, 20 November, Monday

    Time Temperature Precipitation Wind Pressure Humidity
    00:00 +3°C° 0 mm 5 mps 757 mmHg 83%
    01:00 +3°C° 0 mm 5 mps 757 mmHg 82%
    02:00 +3°C° 0 mm 5 mps 757 mmHg 82%
    03:00 +3°C° 0 mm 5 mps 757 mmHg 81%
    04:00 +3°C° 0.1 mm 5 mps 757 mmHg 82%
    05:00 +2°C° 0.1 mm 5 mps 756 mmHg 82%
    06:00 +2°C° 0.1 mm 5 mps 756 mmHg 82%
    07:00 +2°C° 0.4 mm 5 mps 756 mmHg 82%
    08:00 +2°C° 0.4 mm 5 mps 756 mmHg 82%
    09:00 +2°C° 0.4 mm 5 mps 755 mmHg 81%
    10:00 +2°C° 0.5 mm 5 mps 755 mmHg 81%
    11:00 +3°C° 0.5 mm 6 mps 754 mmHg 81%
    12:00 +3°C° 0.5 mm 6 mps 753 mmHg 81%
    13:00 +3°C° 1 mm 6 mps 753 mmHg 84%
    14:00 +3°C° 1 mm 6 mps 752 mmHg 86%
    15:00 +4°C° 1 mm 6 mps 751 mmHg 89%
    16:00 +5°C° 1.3 mm 7 mps 750 mmHg 90%
    17:00 +6°C° 1.3 mm 7 mps 750 mmHg 91%
    18:00 +8°C° 1.3 mm 7 mps 749 mmHg 93%
    19:00 +8°C° 1 mm 7 mps 749 mmHg 93%
    20:00 +9°C° 1 mm 7 mps 749 mmHg 93%
    21:00 +9°C° 1 mm 6 mps 749 mmHg 93%
    22:00 +9°C° 0.4 mm 6 mps 749 mmHg 93%
    23:00 +10°C° 0.4 mm 6 mps 749 mmHg 93%

    Tomorrow, 21 November, Tuesday

    Time Temperature Precipitation Wind Pressure Humidity
    00:00 +10°C° 0.4 mm 6 mps 749 mmHg 93%
    01:00 +10°C° 0.3 mm 6 mps 749 mmHg 93%
    02:00 +10°C° 0.3 mm 5 mps 749 mmHg 94%
    03:00 +10°C° 0.3 mm 5 mps 749 mmHg 94%
    04:00 +10°C° 0.2 mm 5 mps 749 mmHg 94%
    05:00 +10°C° 0.2 mm 4 mps 749 mmHg 94%
    06:00 +10°C° 0.2 mm 4 mps 749 mmHg 95%
    07:00 +10°C° 0.3 mm 4 mps 750 mmHg 95%
    08:00 +11°C° 0.3 mm 4 mps 750 mmHg 95%
    09:00 +11°C° 0.3 mm 3 mps 750 mmHg 95%
    10:00 +11°C° 0.4 mm 4 mps 750 mmHg 94%
    11:00 +11°C° 0.4 mm 4 mps 750 mmHg 94%
    12:00 +11°C° 0.4 mm 4 mps 750 mmHg 93%
    13:00 +10°C° 0.2 mm 5 mps 750 mmHg 91%
    14:00 +10°C° 0.2 mm 6 mps 750 mmHg 90%
    15:00 +10°C° 0.2 mm 6 mps 750 mmHg 88%
    16:00 +9°C° 0 mm 6 mps 750 mmHg 87%
    17:00 +9°C° 0 mm 6 mps 750 mmHg 86%
    18:00 +8°C° 0 mm 6 mps 750 mmHg 85%
    19:00 +8°C° 0 mm 6 mps 750 mmHg 85%
    20:00 +8°C° 0 mm 6 mps 749 mmHg 85%
    21:00 +8°C° 0 mm 6 mps 749 mmHg 84%
    22:00 +8°C° 0 mm 6 mps 749 mmHg 85%
    23:00 +8°C° 0 mm 6 mps 749 mmHg 86%

    Day after tomorrow, 22 November, Wednesday

    Time Temperature Precipitation Wind Pressure Humidity
    00:00 +9°C° 0 mm 7 mps 748 mmHg 86%
    01:00 +9°C° 0 mm 7 mps 748 mmHg 86%
    02:00 +9°C° 0 mm 7 mps 748 mmHg 87%
    03:00 +9°C° 0 mm 7 mps 748 mmHg 87%
    04:00 +9°C° 0 mm 7 mps 748 mmHg 86%
    05:00 +9°C° 0 mm 7 mps 747 mmHg 85%
    06:00 +9°C° 0 mm 7 mps 747 mmHg 84%
    07:00 +9°C° 0 mm 7 mps 747 mmHg 83%
    08:00 +9°C° 0 mm 7 mps 748 mmHg 82%
    09:00 +9°C° 0 mm 7 mps 748 mmHg 81%
    10:00 +9°C° 0 mm 7 mps 748 mmHg 78%
    11:00 +10°C° 0 mm 7 mps 748 mmHg 75%
    12:00 +11°C° 0 mm 6 mps 748 mmHg 72%
    13:00 +10°C° 0 mm 6 mps 748 mmHg 70%
    14:00 +10°C° 0 mm 5 mps 747 mmHg 69%
    15:00 +11°C° 0 mm 4 mps 747 mmHg 68%
    16:00 +10°C° 0 mm 5 mps 747 mmHg 68%
    17:00 +9°C° 0 mm 5 mps 747 mmHg 67%
    18:00 +9°C° 0 mm 6 mps 746 mmHg 66%
    19:00 +9°C° 0 mm 6 mps 746 mmHg 64%
    20:00 +9°C° 0 mm 6 mps 746 mmHg 61%
    21:00 +9°C° 0 mm 6 mps 746 mmHg 58%
    22:00 +9°C° 0 mm 6 mps 746 mmHg 57%
    23:00 +9°C° 0 mm 6 mps 745 mmHg 56%

    23 November, Thursday

    Time Temperature Precipitation Wind Pressure Humidity
    00:00 +9°C° 0 mm 6 mps 745 mmHg 55%
    01:00 +9°C° 0 mm 7 mps 745 mmHg 56%
    02:00 +9°C° 0 mm 7 mps 745 mmHg 57%
    03:00 +10°C° 0 mm 8 mps 744 mmHg 57%
    04:00 +10°C° 0 mm 8 mps 745 mmHg 60%
    05:00 +10°C° 0 mm 8 mps 745 mmHg 62%
    06:00 +10°C° 0 mm 9 mps 745 mmHg 65%
    07:00 +11°C° 0 mm 9 mps 745 mmHg 66%
    08:00 +11°C° 0 mm 9 mps 746 mmHg 68%
    09:00 +12°C° 0 mm 9 mps 747 mmHg 69%
    10:00 +12°C° 0 mm 9 mps 747 mmHg 70%
    11:00 +13°C° 0 mm 8 mps 748 mmHg 71%
    12:00 +13°C° 0 mm 8 mps 749 mmHg 71%
    13:00 +14°C° 0 mm 7 mps 749 mmHg 73%
    14:00 +14°C° 0 mm 7 mps 749 mmHg 75%
    15:00 +13°C° 0 mm 6 mps 750 mmHg 76%
    16:00 +13°C° 0 mm 6 mps 750 mmHg 77%
    17:00 +13°C° 0 mm 6 mps 751 mmHg 79%
    18:00 +13°C° 0 mm 6 mps 751 mmHg 80%
    19:00 +13°C° 0 mm 6 mps 751 mmHg 81%
    20:00 +11°C° 0 mm 6 mps 752 mmHg 82%
    21:00 +11°C° 0 mm 6 mps 752 mmHg 83%
    22:00 +11°C° 0 mm 6 mps 752 mmHg 83%
    23:00 +11°C° 0 mm 6 mps 752 mmHg 83%

    24 November, Friday

    Time Temperature Precipitation Wind Pressure Humidity
    00:00 +11°C° 0 mm 6 mps 752 mmHg 83%
    01:00 +11°C° 0 mm 6 mps 751 mmHg 80%
    02:00 +11°C° 0 mm 6 mps 751 mmHg 78%
    03:00 +11°C° 0 mm 6 mps 751 mmHg 75%
    04:00 +11°C° 0 mm 7 mps 750 mmHg 74%
    05:00 +11°C° 0 mm 7 mps 750 mmHg 72%
    06:00 +11°C° 0 mm 7 mps 750 mmHg 71%
    07:00 +11°C° 0 mm 7 mps 750 mmHg 69%
    08:00 +12°C° 0 mm 8 mps 750 mmHg 68%
    09:00 +12°C° 0 mm 8 mps 750 mmHg 67%
    10:00 +13°C° 0 mm 8 mps 750 mmHg 65%
    11:00 +13°C° 0 mm 8 mps 750 mmHg 64%
    12:00 +14°C° 0 mm 7 mps 750 mmHg 62%
    13:00 +14°C° 0 mm 7 mps 750 mmHg 63%
    14:00 +14°C° 0 mm 7 mps 749 mmHg 64%
    15:00 +14°C° 0 mm 6 mps 749 mmHg 65%
    16:00 +14°C° 0 mm 6 mps 749 mmHg 66%
    17:00 +13°C° 0 mm 6 mps 749 mmHg 66%
    18:00 +13°C° 0 mm 6 mps 749 mmHg 66%
    19:00 +13°C° 0 mm 6 mps 749 mmHg 66%
    20:00 +13°C° 0 mm 6 mps 749 mmHg 65%
    21:00 +13°C° 0 mm 6 mps 749 mmHg 65%
    22:00 +13°C° 0.1 mm 6 mps 749 mmHg 69%
    23:00 +13°C° 0.1 mm 6 mps 749 mmHg 72%

    25 November, Saturday

    Time Temperature Precipitation Wind Pressure Humidity
    00:00 +13°C° 0.1 mm 6 mps 748 mmHg 75%
    01:00 +11°C° 0.6 mm 6 mps 748 mmHg 77%
    02:00 +11°C° 0.6 mm 7 mps 748 mmHg 80%
    03:00 +11°C° 0.6 mm 7 mps 747 mmHg 82%
    04:00 +11°C° 0.9 mm 7 mps 747 mmHg 81%
    05:00 +11°C° 0.9 mm 7 mps 747 mmHg 81%
    06:00 +11°C° 0.9 mm 7 mps 747 mmHg 81%
    07:00 +11°C° 0.5 mm 7 mps 746 mmHg 80%
    08:00 +11°C° 0.5 mm 7 mps 746 mmHg 79%
    09:00 +11°C° 0.5 mm 7 mps 746 mmHg 79%
    10:00 +11°C° 0.9 mm 8 mps 745 mmHg 78%
    11:00 +11°C° 0.9 mm 9 mps 744 mmHg 78%
    12:00 +11°C° 0.9 mm 9 mps 744 mmHg 77%
    13:00 +11°C° 0.3 mm 10 mps 744 mmHg 75%
    14:00 +9°C° 0.3 mm 10 mps 745 mmHg 73%
    15:00 +9°C° 0.3 mm 10 mps 745 mmHg 70%
    16:00 +8°C° 0.1 mm 9 mps 746 mmHg 72%
    17:00 +7°C° 0.1 mm 8 mps 748 mmHg 75%
    18:00 +6°C° 0.1 mm 7 mps 749 mmHg 77%
    19:00 +7°C° 0.1 mm 5 mps 750 mmHg 76%
    20:00 +6°C° 0.1 mm 4 mps 751 mmHg 76%
    21:00 +7°C° 0.1 mm 2 mps 752 mmHg 76%
    22:00 +6°C° 0 mm 2 mps 753 mmHg 77%
    23:00 +6°C° 0 mm 2 mps 753 mmHg 78%
    Show more